EW9060 Weather Reports


time (UTC)temp
F
wind
direction
speed
knots
gust
knots
rain 1hr
in
rain 24hr
in
rain mn
in
humidity
%
barometer
mb
20260506093052 59 144 0.9 2.6 0.00 0.00 0.00 76 1019.3
20260506091554 59 143 0.0 4.3 0.00 0.00 0.00 76 1019.4
20260506090049 59 163 0.0 5.2 0.00 0.00 0.00 76 1019.3
20260506084552 59 161 0.9 3.5 0.00 0.00 0.00 76 1019.3
20260506083051 59 153 0.0 2.6 0.00 0.00 0.00 75 1019.3
20260506081546 60 199 0.0 4.3 0.00 0.00 0.00 75 1019.4
20260506073043 60 186 0.0 2.6 0.00 0.02 0.00 75 1019.0
20260506071540 60 136 0.9 3.5 0.00 0.02 0.00 75 1018.9
20260506061534 61 186 0.0 3.5 0.00 0.10 0.02 74 1018.4
20260506044527 61 254 0.9 4.3 0.00 0.25 0.02 74 1017.5
20260506043025 62 194 0.9 6.1 0.00 0.25 0.02 74 1017.3
20260506041521 62 173 1.7 6.1 0.00 0.25 0.02 74 1017.0
20260506040034 62 179 0.0 5.2 0.00 0.25 0.02 73 1017.0
20260506034521 63 242 1.7 6.1 0.00 0.38 0.02 73 1017.0
20260506033019 63 213 3.5 7.0 0.00 0.38 0.02 72 1016.9
20260506031517 64 258 0.0 6.1 0.00 0.38 0.02 72 1016.7
20260506030016 64 172 0.9 8.7 0.00 0.38 0.02 70 1016.3
20260506024516 64 170 1.7 7.0 0.00 0.42 0.02 70 1016.2
20260506023025 65 192 0.0 5.2 0.00 0.42 0.02 70 1016.0
20260506021528 65 178 0.9 7.0 0.00 0.42 0.02 69 1015.8
20260506020013 66 146 1.7 7.0 0.00 0.42 0.02 67 1015.8
20260506014513 67 18 1.7 7.0 0.00 0.46 0.02 65 1015.7
20260506013012 67 20 2.6 5.2 0.00 0.46 0.02 63 1015.6
20260506011512 68 17 0.0 7.0 0.00 0.46 0.02 62 1015.5
20260506010023 69 15 0.9 4.3 0.00 0.46 0.02 59 1015.4
20260506004515 69 13 0.0 2.6 0.00 0.50 0.02 58 1015.5
20260506003010 70 13 0.9 4.3 0.00 0.50 0.02 56 1015.3
20260506001509 71 100 0.9 3.5 0.00 0.50 0.02 56 1015.3
20260506000010 70 202 0.9 3.5 0.00 0.50 0.02 55 1015.4
20260505234518 70 193 0.9 6.1 0.00 0.55 0.02 56 1015.3
20260505233006 69 137 0.0 4.3 0.00 0.55 0.02 58 1015.3
20260505231500 67 157 0.9 4.3 0.00 0.55 0.02 60 1015.5
20260505224600 68 245 0.0 0.9 0.00 0.56 0.02 61 1015.6
20260505223059 68 132 0.0 2.6 0.00 0.56 0.02 61 1015.7
20260505221559 68 69 0.0 2.6 0.00 0.56 0.02 61 1015.9
20260505220058 67 82 0.9 2.6 0.00 0.56 0.02 62 1016.0
20260505214624 67 84 0.9 6.1 0.00 0.56 0.02 62 1016.1
20260505213103 68 86 0.0 2.6 0.00 0.56 0.02 61 1016.2
20260505211554 67 121 0.0 3.5 0.00 0.56 0.02 61 1016.2
20260505210058 67 106 0.9 5.2 0.00 0.56 0.02 63 1016.2
20260505204558 66 197 0.9 2.6 0.00 0.56 0.02 64 1016.3
20260505203053 65 273 0.0 3.5 0.00 0.56 0.02 66 1016.4
20260505201553 66 121 0.9 2.6 0.00 0.56 0.02 65 1016.4
20260505200100 65 10 0.0 2.6 0.00 0.56 0.02 66 1016.5
20260505194549 65 107 0.0 3.5 0.00 0.56 0.02 68 1016.6
20260505193048 63 292 0.0 1.7 0.00 0.56 0.02 70 1016.5
20260505191538 63 275 0.0 1.7 0.00 0.56 0.02 71 1016.7
20260505190039 62 306 0.9 3.5 0.00 0.56 0.02 73 1016.7
20260505184532 62 71 0.9 2.6 0.00 0.57 0.02 74 1016.6
20260505183030 61 119 0.0 0.0 0.00 0.57 0.02 76 1016.6
20260505181528 61 200 0.0 0.0 0.00 0.57 0.02 77 1016.5
20260505180050 60 71 0.0 3.5 0.00 0.57 0.02 79 1016.4
20260505174546 60 290 0.0 0.0 0.00 0.57 0.02 81 1016.4
20260505173025 59 135 0.0 0.9 0.00 0.57 0.02 80 1016.3
20260505171523 58 12 0.0 1.7 0.00 0.57 0.02 82 1016.3
20260505170018 58 16 0.0 3.5 0.00 0.57 0.02 83 1016.3
20260505164516 57 12 0.9 3.5 0.00 0.57 0.02 85 1016.3
20260505163019 57 13 1.7 5.2 0.00 0.57 0.02 86 1016.2
20260505161510 56 12 0.0 5.2 0.00 0.57 0.02 87 1016.1
20260505153004 55 119 0.9 6.1 0.00 0.57 0.02 89 1016.0
20260505151502 55 130 0.9 6.1 0.00 0.57 0.02 90 1015.8
20260505140107 54 159 0.9 7.0 0.00 0.57 0.02 91 1015.3
20260505124554 53 152 0.0 3.5 0.00 0.57 0.02 92 1014.8
20260505123101 53 150 0.0 4.3 0.00 0.57 0.02 92 1014.8
20260505121553 53 130 1.7 4.3 0.00 0.57 0.02 92 1014.8
20260505120052 53 132 0.9 4.3 0.00 0.57 0.02 92 1014.8
20260505114550 53 127 0.9 4.3 0.00 0.57 0.02 92 1014.9
20260505113101 53 157 0.0 4.3 0.00 0.57 0.02 92 1015.0
20260505111549 53 155 1.7 4.3 0.00 0.57 0.02 92 1015.1
20260505101545 53 139 1.7 4.3 0.00 0.57 0.02 92 1015.1
20260505100050 53 165 0.9 6.1 0.00 0.57 0.02 92 1015.0
20260505094545 53 169 0.9 4.3 0.00 0.57 0.02 92 1015.1